SCP
-0 -1 -1 -1 -0 -0 -1 -1 -1 -1 -1 -1 -1 -1 -1 -0 -0 -0 -0 -0 -0 -0 -0 -0 -0 -0 0 0 0 0 0 0 0 0 0 0 0 0 0 0 0 0 0
-0 -0 -1 -1 -0 -0 -1 -1 -1 -1 -1 -1 -1 -1 -1 -1 -0 -0 -0 -0 -0 -0 0 0 0 0 0 0 0 0 0 0 0 0 0 0 0 0 0 0 0 0 0
-0 -0 -0 -0 -0 -0 -0 -1 -1 -1 -1 -1 -1 -1 -0 -0 -0 -0 -0 0 0 0 0 0 0 0 0 0 0 0 0 0 0 0 0 0 0 0 0 0 0 0 0
0 0 0 -0 -0 -0 -0 -0 -0 -1 -1 -1 -0 -0 -0 -0 -0 -0 -0 -0 0 0 0 0 0 0 0 0 0 0 0 0 0 0 0 0 0 0 0 0 0 0 0
0 0 0 0 0 0 0 0 -0 -0 -0 -0 -0 -0 -0 -0 -0 -0 -0 -0 -0 0 0 0 0 0 0 0 0 0 0 0 0 0 0 0 0 0 0 0 0 0 0
0 0 0 1 0 0 0 0 0 0 0 -0 -0 -0 -0 -0 -0 -0 0 0 0 0 0 0 0 0 0 0 0 0 0 0 0 0 0 0 0 0 0 0 0 0 0
0 0 1 1 1 0 0 0 0 0 0 0 0 0 0 0 0 0 0 0 0 0 0 0 0 0 0 0 0 0 0 0 0 0 0 0 0 0 0 0 0 0 0
0 0 1 0 1 0 0 0 0 0 0 0 0 0 0 0 0 0 0 0 0 0 0 0 0 0 0 0 0 0 0 0 0 0 0 0 0 0 0 0 0 0 0
1 1 1 1 1 0 0 0 0 0 0 0 0 0 0 0 0 0 0 0 0 0 0 0 0 0 0 0 0 0 0 0 0 0 0 0 0 0 0 0 0 0 0
0 1 1 1 0 0 1 0 1 1 1 1 0 0 0 0 0 0 0 0 0 0 0 0 0 0 0 0 0 0 0 0 0 0 0 0 0 0 0 0 0 0 0
0 0 1 1 1 1 1 0 0 0 0 1 1 1 1 1 0 0 0 0 0 0 0 0 0 0 0 0 0 0 0 0 0 0 0 0 0 0 0 0 0 0 0
0 0 0 1 1 1 1 1 1 1 1 1 1 1 1 1 0 0 0 0 0 0 0 0 0 0 0 0 0 0 0 0 0 0 0 0 0 0 0 0 0 0 0
0 0 0 1 1 1 1 1 1 1 1 1 1 1 1 1 1 1 0 0 0 0 0 0 0 0 0 0 0 0 0 0 0 0 0 0 0 0 0 0 0 0 0
0 -0 0 0 1 1 1 2 2 1 1 1 1 1 1 0 0 0 0 0 0 0 0 0 0 0 0 0 0 0 0 0 0 0 0 0 0 0 0 0 0 0 0
-0 -0 -0 0 1 1 1 2 2 2 1 1 1 1 1 0 0 0 0 0 0 0 0 0 0 0 0 0 0 0 0 0 0 0 0 0 0 0 0 0 0 0 0
0 0 0 0 0 1 1 2 2 2 2 2 1 1 1 0 0 0 0 0 0 0 0 0 0 0 0 0 0 0 0 0 0 0 0 0 0 0 0 0 0 0 0
0 0 0 0 0 0 1 1 2 2 2 2 2 1 1 1 0 0 0 0 0 0 0 0 0 0 0 0 0 0 0 0 0 0 0 0 0 0 0 0 0 0 0
0 0 0 0 0 0 0 0 1 2 2 2 2 2 1 1 0 0 0 0 0 0 0 0 0 0 0 0 0 0 0 0 0 0 0 0 0 0 0 0 0 0 0
0 0 0 0 0 0 0 0 0 1 2 2 2 2 1 1 0 0 0 0 0 0 0 0 0 0 0 0 0 0 0 0 0 0 0 0 0 0 0 0 0 0 0
0 0 0 0 0 0 0 0 0 0 1 1 2 2 1 2 1 0 0 0 0 0 0 0 0 0 0 0 0 0 0 0 0 0 0 0 0 0 0 0 0 0 0
0 0 0 0 0 0 0 0 1 1 1 1 1 1 1 1 2 0 0 0 0 0 0 0 0 0 0 0 0 0 0 0 0 0 0 0 0 0 0 0 0 0 0
-0 -0 -0 0 0 0 0 0 0 1 1 1 1 1 1 1 1 1 1 0 0 0 0 0 0 0 0 0 0 0 0 0 0 0 0 0 0 0 0 0 0 0 0
-0 -0 -0 0 0 0 0 0 0 0 0 1 1 1 1 1 1 1 1 1 0 0 0 0 0 0 0 0 0 0 0 0 0 0 0 0 0 0 0 0 0 0 0
-0 0 0 0 0 0 0 0 0 0 0 1 1 1 1 1 1 1 1 1 1 0 0 0 0 0 0 0 0 0 0 0 0 0 0 0 0 0 0 0 0 0 0
-0 0 0 0 0 0 0 0 0 0 0 0 0 1 1 1 1 1 1 1 1 0 0 0 0 0 0 0 0 0 0 0 0 0 0 0 0 0 0 0 0 0 0
0 0 0 0 0 0 0 0 0 0 0 0 0 0 1 2 1 1 1 1 1 1 0 0 0 0 0 0 0 0 0 0 0 0 0 0 0 0 0 0 0 0 0
Wind_Speed_500mb
27 35 38 37 37 34 36 42 45 44 43 40 38 36 33 30 27 29 28 27 26 27 26 25 23 21 20 17 15 14 13 12 11 12 11 18 21 25 27 27 25 26 29
21 36 40 40 38 35 38 45 47 44 42 39 37 35 32 29 25 25 27 26 26 26 25 24 23 19 19 17 14 12 11 9 9 8 12 15 19 21 25 27 27 29 32
16 37 43 42 38 35 39 45 48 45 41 38 35 33 31 29 26 27 27 26 26 25 25 22 22 17 16 16 13 10 7 7 7 5 7 10 13 17 23 27 30 29 32
16 42 46 43 38 34 37 42 47 46 42 38 36 34 31 30 29 30 28 26 25 25 25 21 18 16 14 14 11 8 4 4 4 1 9 5 10 18 23 27 30 31 32
19 38 43 42 36 33 35 39 43 45 42 39 37 35 33 32 31 30 28 26 27 26 24 22 18 15 13 12 11 8 7 4 2 2 6 8 10 15 21 26 30 31 33
18 31 38 39 37 34 33 37 41 42 41 39 38 37 35 33 32 30 29 29 28 26 24 23 21 17 14 13 13 12 10 6 4 5 7 10 11 13 18 24 29 31 32
15 24 32 34 36 36 35 35 38 40 41 40 40 39 37 35 33 31 29 30 29 27 25 23 22 19 18 16 14 14 10 6 6 7 10 8 11 13 16 22 28 31 33
11 13 26 33 34 35 37 37 37 38 40 40 40 41 40 38 35 32 30 29 28 28 27 25 23 20 20 19 17 15 11 9 8 8 10 11 14 15 18 22 28 31 32
13 17 21 33 36 37 38 39 40 40 40 41 43 44 42 40 38 34 31 30 30 29 29 27 24 22 21 20 19 17 14 13 11 9 9 10 19 18 19 24 28 30 31
17 23 25 28 39 42 42 41 42 43 42 41 43 45 46 45 42 39 34 32 31 32 30 28 26 25 24 23 21 19 16 13 12 13 15 17 18 19 21 25 29 29 31
16 20 26 31 36 41 42 42 44 45 46 47 46 47 49 51 48 44 38 34 32 32 31 30 28 28 27 25 22 20 16 13 16 18 18 17 19 20 23 27 29 28 31
5 8 18 26 33 38 39 42 45 48 50 53 53 52 53 52 52 48 43 39 36 34 34 32 31 30 30 28 24 21 18 17 15 14 16 19 20 22 24 28 27 27 30
24 21 18 22 29 36 39 37 46 51 53 56 58 59 57 56 55 55 50 45 40 38 37 36 34 33 31 33 30 25 23 22 16 13 19 21 22 23 25 29 27 26 31
26 24 23 23 24 27 42 46 45 48 53 58 62 65 66 63 62 60 56 50 45 41 39 38 36 36 34 35 33 27 26 25 19 18 20 22 21 24 27 27 25 26 30
30 27 22 22 26 34 36 40 52 52 52 53 61 63 71 72 67 63 60 55 51 45 43 40 39 38 36 35 35 31 28 26 23 21 23 17 19 23 27 25 23 24 28
28 32 31 34 29 27 37 45 43 53 52 51 54 58 66 72 72 68 63 59 56 51 45 42 41 39 38 37 36 33 33 29 27 24 20 17 19 24 27 25 23 23 27
20 30 33 36 35 33 35 32 47 44 52 51 48 49 54 63 69 71 68 64 60 52 45 46 45 43 41 41 39 34 32 33 29 27 23 20 23 25 26 27 24 26 27
20 16 22 35 39 42 37 44 39 46 52 52 52 49 47 52 61 66 71 68 61 56 49 48 46 48 47 45 42 38 36 33 31 30 27 25 25 27 27 28 27 26 29
31 22 17 20 35 44 49 50 54 53 51 54 56 54 51 51 53 63 65 68 64 60 53 48 46 45 46 45 41 40 37 35 37 34 32 28 29 28 32 29 30 27 30
40 35 29 24 26 38 50 56 62 67 62 60 54 57 57 56 54 55 61 65 66 64 59 53 48 42 40 38 40 43 45 45 43 40 34 33 34 33 36 34 32 31 33
54 51 46 41 34 35 44 54 58 68 71 71 65 58 59 61 63 60 59 59 62 70 67 60 53 48 45 41 42 42 46 44 45 40 40 42 39 37 32 33 33 33 35
71 67 60 52 46 46 44 46 48 60 73 80 83 77 63 65 66 70 68 66 65 68 72 66 62 56 45 46 46 42 34 42 43 43 46 45 42 40 37 36 36 38 39
73 68 61 55 47 42 42 57 55 53 68 81 87 90 76 63 67 72 73 64 62 63 74 70 65 64 52 55 54 41 22 27 33 38 41 42 42 40 40 39 40 39 40
70 61 57 52 43 36 38 46 60 66 63 64 87 87 86 73 65 71 71 67 63 60 67 72 72 66 66 63 60 62 57 42 28 18 29 36 39 40 38 37 36 39 42
66 62 62 59 49 40 38 40 50 66 71 64 60 83 87 83 74 67 71 72 73 67 63 65 73 71 67 67 68 67 61 54 49 41 28 30 36 36 34 35 40 42 44
64 62 62 61 57 52 45 42 45 60 70 70 68 65 85 86 81 78 68 69 73 71 67 65 71 69 69 64 69 68 62 53 54 50 39 30 34 32 33 40 41 40 43
Wind_Direction_500mb
172 180 180 179 177 181 185 180 172 165 164 164 166 166 163 160 156 153 149 147 143 142 145 147 146 145 131 125 123 118 106 94 87 105 76 60 55 45 38 34 29 22 19
205 183 182 182 179 185 184 180 179 172 169 171 173 172 171 169 165 162 161 156 150 151 152 153 150 147 137 135 129 121 106 91 87 106 79 58 51 42 34 29 23 18 15
210 189 181 184 183 184 185 183 184 184 180 179 183 183 177 173 171 171 173 166 163 161 160 159 151 148 147 145 141 130 115 93 81 128 142 41 42 34 26 21 19 14 11
183 190 183 185 185 183 186 187 189 189 189 191 191 187 183 179 178 179 179 175 173 171 166 161 156 157 157 150 149 151 141 107 89 11 218 344 7 15 12 13 13 8 7
169 176 183 187 188 187 187 190 194 196 195 195 196 193 188 186 186 187 185 183 184 180 171 164 168 173 177 172 165 171 172 159 113 337 277 266 335 355 1 3 5 2 2
169 186 190 193 193 195 193 195 196 198 199 199 199 197 195 194 193 194 193 192 190 186 180 174 173 183 191 192 178 185 190 203 272 291 301 264 318 330 351 351 355 357 356
140 195 201 203 204 204 204 203 203 203 203 204 202 201 201 200 200 200 201 199 195 191 188 183 183 187 197 208 195 194 208 241 276 273 304 291 296 317 337 336 347 353 353
153 185 211 212 214 217 214 215 213 211 210 209 208 207 207 207 206 206 206 204 202 198 197 193 190 195 204 211 214 210 222 249 274 298 300 292 309 306 316 325 340 347 351
212 217 215 218 219 219 223 224 224 223 219 216 214 214 214 215 215 213 212 209 207 205 204 201 196 200 212 216 222 226 231 245 266 283 301 297 292 296 302 318 331 342 347
219 234 233 225 222 221 223 225 227 229 228 225 222 220 220 220 220 220 218 216 213 211 210 207 204 204 215 220 223 229 235 245 265 283 292 274 282 286 293 310 324 334 343
212 227 237 239 229 225 227 230 230 230 232 230 228 226 225 225 225 225 224 223 223 219 216 215 212 210 214 223 225 228 230 248 269 279 284 279 275 274 283 303 317 328 339
260 269 240 230 237 233 227 233 237 237 234 232 231 231 230 229 229 230 229 229 229 227 222 221 219 217 217 219 223 226 232 251 278 287 284 279 272 266 278 298 312 325 337
291 283 274 244 230 239 240 242 240 237 239 240 237 234 234 233 231 230 230 231 232 232 229 226 225 225 221 225 226 232 244 256 263 296 301 286 279 262 277 297 307 327 335
290 286 283 264 260 257 256 247 248 249 246 244 242 239 235 234 233 233 233 234 236 237 237 234 232 231 228 227 231 235 244 251 259 292 298 297 276 263 279 294 304 324 331
270 269 279 282 270 260 258 258 255 252 251 252 252 248 242 238 236 236 235 235 238 239 240 239 238 237 235 230 226 232 246 251 259 278 295 290 287 277 279 288 307 318 325
273 268 273 262 271 268 260 258 255 253 257 256 257 256 250 243 240 238 238 237 238 240 242 241 240 241 238 232 228 237 247 251 257 271 281 286 304 284 283 289 303 313 321
302 274 259 256 250 260 256 259 261 254 252 255 258 261 257 249 243 241 239 239 241 242 245 244 242 240 236 226 228 236 253 247 254 268 275 285 296 289 281 289 297 307 319
1 321 270 252 250 245 252 253 256 264 257 253 253 260 258 256 246 243 243 241 242 243 245 243 241 238 232 229 234 242 251 247 260 261 269 274 287 284 281 287 285 299 316
358 342 323 273 255 246 248 246 247 251 261 263 258 256 255 254 252 243 245 246 244 243 244 242 241 236 231 232 239 242 248 247 260 256 263 268 283 280 288 279 280 290 303
342 333 320 295 281 266 253 245 244 246 249 255 259 260 260 253 250 247 241 243 244 243 241 238 235 236 234 236 246 251 238 244 255 249 253 259 268 263 272 270 275 286 292
333 326 316 303 273 270 267 257 246 245 246 249 250 259 258 256 252 247 241 240 240 240 238 236 235 240 240 241 237 232 237 249 244 245 251 257 257 261 260 264 272 280 286
338 329 319 308 292 273 259 258 259 248 242 248 250 250 258 256 253 253 249 244 240 238 237 235 234 235 235 229 226 231 230 234 240 248 255 254 250 252 259 261 267 276 279
340 333 326 316 302 286 281 263 258 255 249 244 246 249 249 256 255 253 256 249 245 238 237 233 230 232 234 224 226 221 225 232 245 248 250 250 250 253 255 259 268 273 273
338 337 337 327 316 306 293 280 262 261 262 254 247 248 252 254 258 254 251 250 248 244 237 235 228 231 232 231 229 225 234 248 247 252 253 249 252 253 253 259 266 268 259
339 338 340 326 321 312 305 295 277 262 259 264 260 247 248 253 251 256 249 250 247 244 239 236 226 229 232 234 233 231 234 244 254 256 262 247 247 247 250 256 257 258 263
338 339 338 333 323 314 309 305 293 275 263 259 257 254 245 246 248 249 250 253 251 243 245 238 228 230 231 237 236 241 247 253 256 254 252 254 247 248 251 255 253 263 269
Wind_Speed_850mb
27 35 38 37 37 34 36 42 45 44 43 40 38 36 33 30 27 29 28 27 26 27 26 25 23 21 20 17 15 14 13 12 11 12 11 18 21 25 27 27 25 26 29
21 36 40 40 38 35 38 45 47 44 42 39 37 35 32 29 25 25 27 26 26 26 25 24 23 19 19 17 14 12 11 9 9 8 12 15 19 21 25 27 27 29 32
16 37 43 42 38 35 39 45 48 45 41 38 35 33 31 29 26 27 27 26 26 25 25 22 22 17 16 16 13 10 7 7 7 5 7 10 13 17 23 27 30 29 32
16 42 46 43 38 34 37 42 47 46 42 38 36 34 31 30 29 30 28 26 25 25 25 21 18 16 14 14 11 8 4 4 4 1 9 5 10 18 23 27 30 31 32
19 38 43 42 36 33 35 39 43 45 42 39 37 35 33 32 31 30 28 26 27 26 24 22 18 15 13 12 11 8 7 4 2 2 6 8 10 15 21 26 30 31 33
18 31 38 39 37 34 33 37 41 42 41 39 38 37 35 33 32 30 29 29 28 26 24 23 21 17 14 13 13 12 10 6 4 5 7 10 11 13 18 24 29 31 32
15 24 32 34 36 36 35 35 38 40 41 40 40 39 37 35 33 31 29 30 29 27 25 23 22 19 18 16 14 14 10 6 6 7 10 8 11 13 16 22 28 31 33
11 13 26 33 34 35 37 37 37 38 40 40 40 41 40 38 35 32 30 29 28 28 27 25 23 20 20 19 17 15 11 9 8 8 10 11 14 15 18 22 28 31 32
13 17 21 33 36 37 38 39 40 40 40 41 43 44 42 40 38 34 31 30 30 29 29 27 24 22 21 20 19 17 14 13 11 9 9 10 19 18 19 24 28 30 31
17 23 25 28 39 42 42 41 42 43 42 41 43 45 46 45 42 39 34 32 31 32 30 28 26 25 24 23 21 19 16 13 12 13 15 17 18 19 21 25 29 29 31
16 20 26 31 36 41 42 42 44 45 46 47 46 47 49 51 48 44 38 34 32 32 31 30 28 28 27 25 22 20 16 13 16 18 18 17 19 20 23 27 29 28 31
5 8 18 26 33 38 39 42 45 48 50 53 53 52 53 52 52 48 43 39 36 34 34 32 31 30 30 28 24 21 18 17 15 14 16 19 20 22 24 28 27 27 30
24 21 18 22 29 36 39 37 46 51 53 56 58 59 57 56 55 55 50 45 40 38 37 36 34 33 31 33 30 25 23 22 16 13 19 21 22 23 25 29 27 26 31
26 24 23 23 24 27 42 46 45 48 53 58 62 65 66 63 62 60 56 50 45 41 39 38 36 36 34 35 33 27 26 25 19 18 20 22 21 24 27 27 25 26 30
30 27 22 22 26 34 36 40 52 52 52 53 61 63 71 72 67 63 60 55 51 45 43 40 39 38 36 35 35 31 28 26 23 21 23 17 19 23 27 25 23 24 28
28 32 31 34 29 27 37 45 43 53 52 51 54 58 66 72 72 68 63 59 56 51 45 42 41 39 38 37 36 33 33 29 27 24 20 17 19 24 27 25 23 23 27
20 30 33 36 35 33 35 32 47 44 52 51 48 49 54 63 69 71 68 64 60 52 45 46 45 43 41 41 39 34 32 33 29 27 23 20 23 25 26 27 24 26 27
20 16 22 35 39 42 37 44 39 46 52 52 52 49 47 52 61 66 71 68 61 56 49 48 46 48 47 45 42 38 36 33 31 30 27 25 25 27 27 28 27 26 29
31 22 17 20 35 44 49 50 54 53 51 54 56 54 51 51 53 63 65 68 64 60 53 48 46 45 46 45 41 40 37 35 37 34 32 28 29 28 32 29 30 27 30
40 35 29 24 26 38 50 56 62 67 62 60 54 57 57 56 54 55 61 65 66 64 59 53 48 42 40 38 40 43 45 45 43 40 34 33 34 33 36 34 32 31 33
54 51 46 41 34 35 44 54 58 68 71 71 65 58 59 61 63 60 59 59 62 70 67 60 53 48 45 41 42 42 46 44 45 40 40 42 39 37 32 33 33 33 35
71 67 60 52 46 46 44 46 48 60 73 80 83 77 63 65 66 70 68 66 65 68 72 66 62 56 45 46 46 42 34 42 43 43 46 45 42 40 37 36 36 38 39
73 68 61 55 47 42 42 57 55 53 68 81 87 90 76 63 67 72 73 64 62 63 74 70 65 64 52 55 54 41 22 27 33 38 41 42 42 40 40 39 40 39 40
70 61 57 52 43 36 38 46 60 66 63 64 87 87 86 73 65 71 71 67 63 60 67 72 72 66 66 63 60 62 57 42 28 18 29 36 39 40 38 37 36 39 42
66 62 62 59 49 40 38 40 50 66 71 64 60 83 87 83 74 67 71 72 73 67 63 65 73 71 67 67 68 67 61 54 49 41 28 30 36 36 34 35 40 42 44
64 62 62 61 57 52 45 42 45 60 70 70 68 65 85 86 81 78 68 69 73 71 67 65 71 69 69 64 69 68 62 53 54 50 39 30 34 32 33 40 41 40 43
Wind_Direction_850mb
172 180 180 179 177 181 185 180 172 165 164 164 166 166 163 160 156 153 149 147 143 142 145 147 146 145 131 125 123 118 106 94 87 105 76 60 55 45 38 34 29 22 19
205 183 182 182 179 185 184 180 179 172 169 171 173 172 171 169 165 162 161 156 150 151 152 153 150 147 137 135 129 121 106 91 87 106 79 58 51 42 34 29 23 18 15
210 189 181 184 183 184 185 183 184 184 180 179 183 183 177 173 171 171 173 166 163 161 160 159 151 148 147 145 141 130 115 93 81 128 142 41 42 34 26 21 19 14 11
183 190 183 185 185 183 186 187 189 189 189 191 191 187 183 179 178 179 179 175 173 171 166 161 156 157 157 150 149 151 141 107 89 11 218 344 7 15 12 13 13 8 7
169 176 183 187 188 187 187 190 194 196 195 195 196 193 188 186 186 187 185 183 184 180 171 164 168 173 177 172 165 171 172 159 113 337 277 266 335 355 1 3 5 2 2
169 186 190 193 193 195 193 195 196 198 199 199 199 197 195 194 193 194 193 192 190 186 180 174 173 183 191 192 178 185 190 203 272 291 301 264 318 330 351 351 355 357 356
140 195 201 203 204 204 204 203 203 203 203 204 202 201 201 200 200 200 201 199 195 191 188 183 183 187 197 208 195 194 208 241 276 273 304 291 296 317 337 336 347 353 353
153 185 211 212 214 217 214 215 213 211 210 209 208 207 207 207 206 206 206 204 202 198 197 193 190 195 204 211 214 210 222 249 274 298 300 292 309 306 316 325 340 347 351
212 217 215 218 219 219 223 224 224 223 219 216 214 214 214 215 215 213 212 209 207 205 204 201 196 200 212 216 222 226 231 245 266 283 301 297 292 296 302 318 331 342 347
219 234 233 225 222 221 223 225 227 229 228 225 222 220 220 220 220 220 218 216 213 211 210 207 204 204 215 220 223 229 235 245 265 283 292 274 282 286 293 310 324 334 343
212 227 237 239 229 225 227 230 230 230 232 230 228 226 225 225 225 225 224 223 223 219 216 215 212 210 214 223 225 228 230 248 269 279 284 279 275 274 283 303 317 328 339
260 269 240 230 237 233 227 233 237 237 234 232 231 231 230 229 229 230 229 229 229 227 222 221 219 217 217 219 223 226 232 251 278 287 284 279 272 266 278 298 312 325 337
291 283 274 244 230 239 240 242 240 237 239 240 237 234 234 233 231 230 230 231 232 232 229 226 225 225 221 225 226 232 244 256 263 296 301 286 279 262 277 297 307 327 335
290 286 283 264 260 257 256 247 248 249 246 244 242 239 235 234 233 233 233 234 236 237 237 234 232 231 228 227 231 235 244 251 259 292 298 297 276 263 279 294 304 324 331
270 269 279 282 270 260 258 258 255 252 251 252 252 248 242 238 236 236 235 235 238 239 240 239 238 237 235 230 226 232 246 251 259 278 295 290 287 277 279 288 307 318 325
273 268 273 262 271 268 260 258 255 253 257 256 257 256 250 243 240 238 238 237 238 240 242 241 240 241 238 232 228 237 247 251 257 271 281 286 304 284 283 289 303 313 321
302 274 259 256 250 260 256 259 261 254 252 255 258 261 257 249 243 241 239 239 241 242 245 244 242 240 236 226 228 236 253 247 254 268 275 285 296 289 281 289 297 307 319
1 321 270 252 250 245 252 253 256 264 257 253 253 260 258 256 246 243 243 241 242 243 245 243 241 238 232 229 234 242 251 247 260 261 269 274 287 284 281 287 285 299 316
358 342 323 273 255 246 248 246 247 251 261 263 258 256 255 254 252 243 245 246 244 243 244 242 241 236 231 232 239 242 248 247 260 256 263 268 283 280 288 279 280 290 303
342 333 320 295 281 266 253 245 244 246 249 255 259 260 260 253 250 247 241 243 244 243 241 238 235 236 234 236 246 251 238 244 255 249 253 259 268 263 272 270 275 286 292
333 326 316 303 273 270 267 257 246 245 246 249 250 259 258 256 252 247 241 240 240 240 238 236 235 240 240 241 237 232 237 249 244 245 251 257 257 261 260 264 272 280 286
338 329 319 308 292 273 259 258 259 248 242 248 250 250 258 256 253 253 249 244 240 238 237 235 234 235 235 229 226 231 230 234 240 248 255 254 250 252 259 261 267 276 279
340 333 326 316 302 286 281 263 258 255 249 244 246 249 249 256 255 253 256 249 245 238 237 233 230 232 234 224 226 221 225 232 245 248 250 250 250 253 255 259 268 273 273
338 337 337 327 316 306 293 280 262 261 262 254 247 248 252 254 258 254 251 250 248 244 237 235 228 231 232 231 229 225 234 248 247 252 253 249 252 253 253 259 266 268 259
339 338 340 326 321 312 305 295 277 262 259 264 260 247 248 253 251 256 249 250 247 244 239 236 226 229 232 234 233 231 234 244 254 256 262 247 247 247 250 256 257 258 263
338 339 338 333 323 314 309 305 293 275 263 259 257 254 245 246 248 249 250 253 251 243 245 238 228 230 231 237 236 241 247 253 256 254 252 254 247 248 251 255 253 263 269